TimeCDT,TemperatureF,Dew PointF,Humidity,Sea Level PressureIn,VisibilityMPH,Wind Direction,Wind SpeedMPH,Gust SpeedMPH,PrecipitationIn,Events,Conditions,WindDirDegrees,DateUTC
12:15 AM,35.6,26.6,70,29.52,10.0,SW,24.2,31.1,N/A,,Clear,230,2013-04-15 05:15:00
12:35 AM,33.8,26.6,75,29.52,10.0,WSW,27.6,38.0,N/A,,Clear,240,2013-04-15 05:35:00
12:55 AM,33.8,26.6,75,29.53,10.0,WSW,26.5,35.7,N/A,,Clear,240,2013-04-15 05:55:00
1:15 AM,33.8,24.8,70,29.53,10.0,WSW,28.8,35.7,N/A,,Clear,240,2013-04-15 06:15:00
1:35 AM,32.0,24.8,75,29.54,10.0,WSW,27.6,35.7,N/A,,Clear,240,2013-04-15 06:35:00
1:55 AM,32.0,23.0,69,29.53,10.0,WSW,33.4,41.4,N/A,,Clear,240,2013-04-15 06:55:00
2:15 AM,30.2,21.2,69,29.53,10.0,WSW,33.4,42.6,N/A,,Clear,250,2013-04-15 07:15:00
2:35 AM,30.2,21.2,69,29.53,10.0,WSW,31.1,41.4,N/A,,Clear,250,2013-04-15 07:35:00
2:55 AM,30.2,21.2,69,29.54,10.0,WSW,35.7,43.7,N/A,,Clear,250,2013-04-15 07:55:00
3:15 AM,30.2,19.4,64,29.54,10.0,WSW,34.5,43.7,N/A,,Clear,250,2013-04-15 08:15:00
3:35 AM,28.4,21.2,74,29.55,10.0,WSW,33.4,41.4,N/A,,Clear,250,2013-04-15 08:35:00
3:55 AM,28.4,21.2,74,29.55,10.0,WSW,28.8,38.0,N/A,,Scattered Clouds,250,2013-04-15 08:55:00
4:15 AM,28.4,21.2,74,29.57,10.0,WSW,28.8,34.5,N/A,,Mostly Cloudy,240,2013-04-15 09:15:00
4:35 AM,28.4,21.2,74,29.58,10.0,WSW,26.5,33.4,N/A,,Overcast,240,2013-04-15 09:35:00
4:55 AM,28.4,21.2,74,29.58,10.0,WSW,26.5,32.2,N/A,,Overcast,250,2013-04-15 09:55:00
5:15 AM,28.4,21.2,74,29.59,10.0,WSW,21.9,31.1,N/A,,Overcast,250,2013-04-15 10:15:00
5:35 AM,28.4,21.2,74,29.60,10.0,WSW,18.4,32.2,N/A,,Overcast,250,2013-04-15 10:35:00
5:55 AM,28.4,21.2,74,29.61,10.0,WSW,19.6,28.8,N/A,,Overcast,240,2013-04-15 10:55:00
6:15 AM,28.4,23.0,80,29.61,10.0,WSW,20.7,24.2,N/A,,Overcast,240,2013-04-15 11:15:00
6:35 AM,28.4,23.0,80,29.63,10.0,WSW,19.6,26.5,N/A,,Overcast,240,2013-04-15 11:35:00
6:55 AM,30.2,23.0,75,29.64,10.0,WSW,20.7,27.6,N/A,,Overcast,240,2013-04-15 11:55:00
7:15 AM,30.2,24.8,80,29.66,10.0,SW,17.3,25.3,N/A,,Overcast,230,2013-04-15 12:15:00
7:35 AM,30.2,24.8,80,29.66,10.0,WSW,21.9,26.5,N/A,,Overcast,240,2013-04-15 12:35:00
7:55 AM,30.2,24.8,80,29.66,10.0,WSW,19.6,28.8,N/A,,Overcast,250,2013-04-15 12:55:00
8:15 AM,30.2,24.8,80,29.65,10.0,West,23.0,28.8,N/A,,Overcast,260,2013-04-15 13:15:00
8:35 AM,30.2,24.8,80,29.65,10.0,West,19.6,28.8,N/A,,Overcast,270,2013-04-15 13:35:00
8:55 AM,32.0,24.8,75,29.67,10.0,West,21.9,28.8,N/A,,Overcast,260,2013-04-15 13:55:00
9:15 AM,32.0,24.8,75,29.69,10.0,West,21.9,28.8,N/A,,Overcast,260,2013-04-15 14:15:00
9:35 AM,32.0,26.6,80,29.70,10.0,West,20.7,28.8,N/A,,Overcast,260,2013-04-15 14:35:00
9:55 AM,32.0,24.8,75,29.72,10.0,WSW,26.5,-,N/A,,Overcast,250,2013-04-15 14:55:00
10:15 AM,32.0,24.8,75,29.75,10.0,West,25.3,32.2,N/A,,Overcast,260,2013-04-15 15:15:00
10:35 AM,33.8,24.8,70,29.76,10.0,WSW,21.9,32.2,N/A,,Overcast,250,2013-04-15 15:35:00
10:55 AM,33.8,26.6,75,29.77,10.0,WSW,17.3,29.9,N/A,,Overcast,250,2013-04-15 15:55:00
11:15 AM,33.8,26.6,75,29.78,10.0,WSW,21.9,26.5,N/A,,Overcast,250,2013-04-15 16:15:00
11:35 AM,33.8,26.6,75,29.79,10.0,WSW,20.7,27.6,N/A,,Overcast,250,2013-04-15 16:35:00
11:55 AM,33.8,26.6,75,29.81,10.0,WSW,23.0,29.9,N/A,,Overcast,250,2013-04-15 16:55:00
12:15 PM,33.8,26.6,75,29.83,10.0,WSW,19.6,25.3,N/A,,Overcast,240,2013-04-15 17:15:00
12:35 PM,33.8,26.6,75,29.83,10.0,WSW,20.7,27.6,N/A,,Overcast,250,2013-04-15 17:35:00
12:55 PM,33.8,26.6,75,29.84,10.0,West,20.7,26.5,N/A,,Overcast,260,2013-04-15 17:55:00
1:15 PM,33.8,26.6,75,29.85,10.0,West,28.8,33.4,N/A,,Overcast,260,2013-04-15 18:15:00
1:35 PM,33.8,26.6,75,29.85,10.0,West,23.0,27.6,N/A,,Overcast,260,2013-04-15 18:35:00
1:55 PM,33.8,26.6,75,29.85,10.0,West,24.2,-,N/A,,Overcast,260,2013-04-15 18:55:00
2:15 PM,33.8,26.6,75,29.86,10.0,West,19.6,27.6,N/A,,Overcast,270,2013-04-15 19:15:00
2:35 PM,35.6,26.6,70,29.87,10.0,West,17.3,26.5,N/A,,Overcast,270,2013-04-15 19:35:00
2:55 PM,35.6,26.6,70,29.87,10.0,West,18.4,-,N/A,,Overcast,270,2013-04-15 19:55:00
3:15 PM,35.6,26.6,70,29.89,10.0,West,20.7,27.6,N/A,,Overcast,270,2013-04-15 20:15:00
3:35 PM,35.6,26.6,70,29.89,10.0,West,18.4,21.9,N/A,,Overcast,270,2013-04-15 20:35:00
3:55 PM,35.6,26.6,70,29.90,10.0,West,23.0,-,N/A,,Overcast,270,2013-04-15 20:55:00
4:15 PM,35.6,26.6,70,29.90,10.0,West,21.9,28.8,N/A,,Overcast,270,2013-04-15 21:15:00
4:35 PM,35.6,26.6,70,29.91,10.0,West,21.9,27.6,N/A,,Overcast,280,2013-04-15 21:35:00
4:55 PM,35.6,26.6,70,29.92,10.0,West,18.4,-,N/A,,Overcast,280,2013-04-15 21:55:00
5:15 PM,35.6,26.6,70,29.93,10.0,West,12.7,-,N/A,,Overcast,280,2013-04-15 22:15:00
5:35 PM,33.8,26.6,75,29.92,10.0,West,18.4,-,N/A,,Overcast,280,2013-04-15 22:35:00
5:55 PM,33.8,24.8,70,29.93,10.0,WNW,18.4,-,N/A,,Overcast,290,2013-04-15 22:55:00
6:15 PM,33.8,26.6,75,29.94,10.0,WNW,17.3,-,N/A,,Overcast,290,2013-04-15 23:15:00
6:35 PM,33.8,26.6,75,29.94,10.0,WNW,18.4,23.0,N/A,,Overcast,290,2013-04-15 23:35:00
6:55 PM,33.8,24.8,70,29.95,10.0,WNW,17.3,-,N/A,,Overcast,290,2013-04-15 23:55:00
7:15 PM,33.8,24.8,70,29.95,10.0,WNW,13.8,-,N/A,,Overcast,300,2013-04-16 00:15:00
7:35 PM,33.8,26.6,75,29.95,10.0,WNW,12.7,-,N/A,,Overcast,290,2013-04-16 00:35:00
7:55 PM,33.8,24.8,70,29.96,10.0,WNW,15.0,23.0,N/A,,Mostly Cloudy,290,2013-04-16 00:55:00
8:15 PM,33.8,24.8,70,29.97,10.0,West,12.7,-,N/A,,Overcast,280,2013-04-16 01:15:00
8:35 PM,33.8,24.8,70,29.99,10.0,West,10.4,-,N/A,,Scattered Clouds,270,2013-04-16 01:35:00
8:55 PM,32.0,24.8,75,30.01,10.0,West,11.5,-,N/A,,Scattered Clouds,260,2013-04-16 01:55:00
9:15 PM,32.0,24.8,75,30.02,10.0,West,10.4,-,N/A,,Mostly Cloudy,270,2013-04-16 02:15:00
9:35 PM,32.0,26.6,80,30.03,10.0,West,9.2,-,N/A,,Overcast,270,2013-04-16 02:35:00
9:55 PM,32.0,26.6,80,30.04,10.0,West,10.4,-,N/A,,Overcast,260,2013-04-16 02:55:00
10:15 PM,32.0,26.6,80,30.05,10.0,West,10.4,-,N/A,,Overcast,270,2013-04-16 03:15:00
10:35 PM,33.8,26.6,75,30.04,10.0,West,9.2,-,N/A,,Overcast,280,2013-04-16 03:35:00
10:55 PM,33.8,26.6,75,30.06,10.0,West,10.4,-,N/A,,Overcast,270,2013-04-16 03:55:00
11:15 PM,32.0,26.6,80,30.06,10.0,West,10.4,-,N/A,,Overcast,270,2013-04-16 04:15:00
11:35 PM,32.0,26.6,80,30.05,10.0,West,10.4,-,N/A,,Overcast,280,2013-04-16 04:35:00
11:55 PM,32.0,26.6,80,30.06,10.0,West,11.5,-,N/A,,Overcast,280,2013-04-16 04:55:00